CDT,Max TemperatureF,Mean TemperatureF,Min TemperatureF,Max Dew PointF,MeanDew PointF,Min DewpointF,Max Humidity, Mean Humidity, Min Humidity, Max Sea Level PressureIn, Mean Sea Level PressureIn, Min Sea Level PressureIn, Max VisibilityMiles, Mean VisibilityMiles, Min VisibilityMiles, Max Wind SpeedMPH, Mean Wind SpeedMPH, Max Gust SpeedMPH,PrecipitationIn, CloudCover, Events, WindDirDegrees
2012-10-1,66,48,29,47,40,28,92,62,31,30.01,29.93,29.81,10,10,10,21,9,28,0.00,1,,319
2012-10-2,69,48,27,37,31,26,100,60,20,29.96,29.84,29.71,10,10,10,23,6,31,0.00,1,,177
2012-10-3,63,48,33,44,38,31,82,64,46,30.02,29.91,29.78,10,9,4,18,7,25,T,4,,16
2012-10-4,50,42,33,46,38,32,96,86,76,29.99,29.70,29.49,10,7,1,23,14,33,0.24,8,Rain-Snow,305
2012-10-5,39,36,32,36,32,30,96,91,85,30.18,29.93,29.77,10,6,1,22,14,30,0.21,8,Rain-Snow,304
2012-10-6,46,37,27,31,28,25,92,71,49,30.29,30.22,30.12,10,10,10,17,8,22,0.03,5,,298
2012-10-7,52,39,25,32,26,23,92,64,35,30.10,29.92,29.77,10,10,10,20,6,26,0.00,5,,220
2012-10-8,42,38,34,41,35,27,100,82,64,29.75,29.59,29.48,10,9,6,14,4,20,0.19,8,Rain,224
2012-10-9,41,35,29,38,34,26,100,91,82,29.93,29.69,29.55,10,9,4,22,10,26,0.07,8,Rain-Snow,281
2012-10-10,44,34,24,32,28,22,100,73,45,30.00,29.95,29.89,10,10,10,15,7,21,T,7,Rain,259
2012-10-11,42,32,21,32,27,20,100,78,55,30.38,30.12,29.89,10,10,2,21,9,26,0.01,6,Rain-Snow,285
2012-10-12,45,30,15,28,19,13,100,67,33,30.42,30.26,29.98,10,10,10,16,6,23,0.00,4,,179
2012-10-13,56,42,27,37,28,17,92,66,40,29.96,29.80,29.71,10,10,5,10,5,17,0.00,1,,131
2012-10-14,55,40,25,41,31,24,100,77,54,29.91,29.86,29.81,10,4,0,9,3,14,0.00,5,Fog,316
2012-10-15,57,39,21,37,30,19,100,72,43,29.94,29.86,29.64,10,5,0,12,4,16,0.00,4,Fog,173
2012-10-16,70,56,42,43,39,35,83,58,33,29.62,29.47,29.35,10,10,7,9,5,14,0.00,0,,143
2012-10-17,54,48,42,50,47,40,100,92,83,29.34,29.19,29.09,10,9,4,17,7,24,0.11,7,Rain,122
2012-10-18,54,51,47,52,50,46,100,97,93,29.49,29.26,29.16,10,7,2,18,10,26,0.58,8,Rain,32
2012-10-19,54,44,34,47,43,36,100,80,59,29.75,29.66,29.52,10,10,6,16,6,22,0.18,8,Rain,39
2012-10-20,54,41,28,40,36,28,100,80,59,29.78,29.76,29.72,10,10,9,13,4,18,0.00,5,,153
2012-10-21,55,46,37,48,44,36,100,86,72,30.03,29.87,29.78,10,7,2,14,4,18,0.12,6,Rain,199
2012-10-22,52,44,35,43,38,34,92,73,54,30.15,30.10,30.04,10,10,6,12,7,15,0.00,5,,37
2012-10-23,50,47,43,49,44,36,100,81,61,30.02,29.84,29.69,10,6,2,21,10,28,1.07,8,Rain-Thunderstorm,101
2012-10-24,51,45,38,50,44,36,100,93,85,29.96,29.86,29.73,10,8,2,13,6,18,0.04,8,Rain,279
2012-10-25,38,36,33,36,31,27,96,83,70,29.93,29.87,29.79,10,10,9,17,10,24,0.01,8,Rain,291
2012-10-26,35,29,22,31,24,20,89,74,59,30.26,30.12,29.88,10,9,2,21,12,31,T,7,Snow,258
2012-10-27,36,27,17,22,17,12,92,65,38,30.37,30.31,30.25,10,10,5,17,7,23,T,6,,263
2012-10-28,33,24,15,21,17,13,92,73,53,30.39,30.38,30.32,10,10,9,7,2,12,T,6,,340
2012-10-29,45,36,26,32,28,18,96,75,53,30.39,30.35,30.30,10,9,5,10,7,15,0.01,7,Snow,109
2012-10-30,43,30,17,31,25,18,100,71,41,30.34,30.28,30.18,10,10,9,10,5,15,0.00,1,,93
2012-10-31,44,28,11,31,19,10,96,65,34,30.18,30.06,29.93,10,10,10,10,3,14,T,4,Rain-Snow,302